Location: Casilda
(33.0440°S, 61.1680°W)
Time: 20:16:25
(UTC-03:00)

ISS - Visible Passes

Search period start: 18 December 2018 00:00
Search period end: 28 December 2018 00:00
Orbit: 401 x 408 km, 51.6° (Epoch: 19 December)

Date Brightness Start Highest point End Pass type
(mag) Time Alt. Az. Time Alt. Az. Time Alt. Az.
18 Dec -1.4 04:28:03 10° SSW 04:30:58 27° SE 04:33:53 10° E visible
18 Dec -3.9 21:04:24 10° NW 21:07:42 88° NE 21:11:02 10° SE visible
18 Dec -0.1 22:43:29 10° SW 22:44:36 11° SSW 22:45:44 10° S visible
19 Dec -0.5 03:36:27 10° S 03:38:38 16° SSE 03:40:48 10° ESE visible
19 Dec -3.6 05:12:05 10° WSW 05:15:19 48° NW 05:18:32 10° NNE visible
19 Dec -0.7 21:49:47 10° W 21:52:11 18° SSW 21:54:36 10° SSE visible
20 Dec -3.6 04:19:50 10° SW 04:23:12 73° SE 04:26:30 10° NE visible
20 Dec -1.7 20:56:50 10° WNW 20:59:51 32° SW 21:02:54 10° SSE visible
21 Dec -2.1 03:27:50 10° SSW 03:30:56 34° SE 03:34:01 10° ENE visible
21 Dec -2.2 05:04:58 10° W 05:07:12 17° NW 05:09:25 10° N visible
22 Dec -0.7 02:36:05 10° SSW 02:37:01 14° S 02:37:01 14° S visible
22 Dec -0.6 20:50:05 10° WSW 20:52:07 15° SSW 20:54:11 10° S visible
